Waarnemingen

Advertentie
Mijn weer
Agen, Frankrijk (7524): temperatuur & dauwpunt: 20.05.2017 16:00:00 - 26.05.2017 16:00:00 (CEST)Agen, Frankrijk (7524): temperatuur 5cm: 20.05.2017 16:00:00 - 26.05.2017 16:00:00 (CEST)Agen, Frankrijk (7524): temperatuur -20cm & temperatuur -100cm: 20.05.2017 16:00:00 - 26.05.2017 16:00:00 (CEST)Agen, Frankrijk (7524): windsnelheid & windstoten: 20.05.2017 16:00:00 - 26.05.2017 16:00:00 (CEST)Agen, Frankrijk (7524): windrichting: 20.05.2017 16:00:00 - 26.05.2017 16:00:00 (CEST)Agen, Frankrijk (7524): luchtdruk: 20.05.2017 16:00:00 - 26.05.2017 16:00:00 (CEST)Agen, Frankrijk (7524): zicht: 20.05.2017 16:00:00 - 26.05.2017 16:00:00 (CEST)Agen, Frankrijk (7524): Zonneschijnduur: 20.05.2017 16:00:00 - 26.05.2017 16:00:00 (CEST)Agen, Frankrijk (7524): neerslag: 20.05.2017 16:00:00 - 26.05.2017 16:00:00 (CEST)
Datum & Tijd tt [°C] td [°C] tt 5cm [°C] tt -20cm [°C] tt -100cm [°C] ff [km/u] ff [kn] fx [km/u] fx [kn] dd ppp [hPa] vv [km] sd [min] rr [mm]
26.05.2017 16:00:00 30,5 15,8 39,4 17,4 14,7 21 11 37 20 OZO 1011,3 5 60 0,0
26.05.2017 15:00:00 29,8 15,9 41,7 17,3 14,7 24 13 36 20 OZO 1011,6 6 60 0,0
26.05.2017 14:00:00 28,8 16,7 42,8 17,2 14,7 22 12 32 18 OZO 1012,1 6 60 0,0
26.05.2017 13:00:00 27,5 16,5 40,8 17,2 14,7 23 12 34 18 ZO 1012,3 4,1 60 0,0
26.05.2017 12:00:00 26,7 16,3 35,9 17,2 14,7 20 11 31 17 OZO 1012,6 4,9 60 0,0
26.05.2017 11:00:00 25,0 16,2 27,9 17,2 14,7 18 10 29 16 OZO 1012,8 7 60 0,0
26.05.2017 10:00:00 22,3 15,6 21,3 17,2 14,7 21 11 29 16 OZO 1012,9 8 60 0,0
26.05.2017 09:00:00 20,1 14,9 16,5 17,3 14,7 15 8 21 11 OZO 1013,0 9 60 0,0
26.05.2017 08:00:00 17,8 13,9 12,5 17,3 14,7 11 6 20 11 OZO 1013,1 12 60 0,0
26.05.2017 07:00:00 15,5 13,0 10,5 17,4 14,7 9 5 17 9 OZO 1013,2 13 23 0,0
26.05.2017 06:00:00 14,3 12,7 9,1 17,5 14,7 10 6 14 8 OZO 1013,1 14 0 0,0
26.05.2017 05:00:00 14,5 12,2 9,3 17,5 14,7 5 3 10 6 O 1013,5 28 0 0,0
26.05.2017 04:00:00 15,7 12,6 10,1 17,6 14,7 6 3 10 5 ZO 1013,4 47 0 0,0
26.05.2017 03:00:00 15,8 12,9 10,4 17,6 14,7 6 4 11 6 OZO 1013,2 19 0 0,0
26.05.2017 02:00:00 16,1 14,1 - - - 8 4 11 6 OZO 1013,0 17 - -
26.05.2017 01:00:00 17,1 14,4 10,9 17,7 14,7 8 4 14 7 OZO 1012,9 19 0 0,0
26.05.2017 00:00:00 17,3 14,8 11,2 17,7 14,7 5 3 7 4 ZO 1012,4 19 0 0,0
25.05.2017 23:00:00 20,1 15,5 13,1 17,6 14,6 0 0 8 5 N 1012,2 17 0 0,0
25.05.2017 22:00:00 22,3 15,9 14,8 17,5 14,6 2 1 4 2 N 1011,9 0,3 16 0,0
25.05.2017 21:00:00 27,9 14,9 21,0 17,5 14,6 2 1 9 5 OZO 1011,5 22 60 0,0
25.05.2017 20:00:00 29,6 15,7 27,8 17,4 14,6 6 3 10 5 ZO 1011,3 28 60 0,0
25.05.2017 19:00:00 30,8 13,1 32,6 17,2 14,6 6 3 16 8 O 1011,6 34 60 0,0
25.05.2017 18:00:00 30,8 14,4 36,5 17,1 14,6 12 6 21 12 OZO 1012,3 26 60 0,0
25.05.2017 17:00:00 30,8 13,1 40,0 16,9 14,6 10 5 18 10 OZO 1012,6 33 60 0,0
25.05.2017 16:00:00 30,4 13,7 43,2 16,8 14,6 9 5 16 9 ONO 1013,2 40 60 0,0
25.05.2017 15:00:00 29,6 15,3 45,6 16,6 14,6 6 4 14 7 OZO 1013,8 30 60 0,0
25.05.2017 14:00:00 28,4 16,0 46,0 16,6 14,6 7 4 15 8 ZO 1014,3 24 60 0,0
25.05.2017 13:00:00 27,1 15,8 44,9 16,6 14,6 10 5 17 9 OZO 1015,0 18 60 0,0
25.05.2017 12:00:00 25,8 14,6 38,7 16,6 14,6 6 4 16 8 OZO 1015,6 15 60 0,0
25.05.2017 11:00:00 24,0 15,8 28,2 16,5 14,6 9 5 16 9 OZO 1015,8 12 60 0,0
25.05.2017 10:00:00 21,8 15,6 21,4 16,6 14,6 10 5 16 8 OZO 1016,2 10 60 0,0
25.05.2017 09:00:00 19,5 15,2 16,2 16,6 14,6 7 4 11 6 OZO 1016,2 9 60 0,0
25.05.2017 08:00:00 16,9 15,4 8,8 16,7 14,6 8 4 10 5 O 1016,2 8 60 0,0
25.05.2017 07:00:00 13,7 12,9 7,4 16,8 14,6 4 2 5 3 O 1016,3 2,4 19 0,0
25.05.2017 06:00:00 13,2 12,3 7,5 16,9 14,6 5 3 6 4 O 1016,2 0,6 0 0,2
25.05.2017 05:00:00 14,1 13,3 7,9 16,9 14,5 4 2 9 5 O 1016,1 9 0 0,0
25.05.2017 04:00:00 14,5 13,7 8,5 17,0 14,6 5 3 9 5 ZO 1016,2 19 0 0,0
25.05.2017 03:00:00 14,6 13,6 9,5 17,0 14,6 0 0 3 2 N 1016,8 20 0 0,0
25.05.2017 02:00:00 15,2 13,9 10,0 17,1 14,6 0 0 4 2 N 1017,3 7 0 0,0
25.05.2017 01:00:00 16,1 13,9 11,0 17,1 14,5 0 0 4 2 N 1017,6 22 0 0,0
25.05.2017 00:00:00 17,3 14,8 11,5 17,1 14,5 0 0 3 2 N 1017,9 24 0 0,0
24.05.2017 23:00:00 18,5 14,8 12,5 17,0 14,5 0 0 5 3 N 1018,0 24 0 0,0
24.05.2017 22:00:00 22,4 15,7 14,8 17,0 14,5 5 3 6 3 ZW 1017,7 13 12 0,0
24.05.2017 21:00:00 26,1 14,2 19,6 16,9 14,5 3 2 11 6 NO 1017,5 33 60 0,0
24.05.2017 20:00:00 27,2 14,6 25,5 16,8 14,5 8 4 16 9 NNO 1017,8 34 60 0,0
24.05.2017 19:00:00 27,6 14,9 30,8 16,6 14,5 9 5 16 9 ONO 1018,1 41 60 0,0
24.05.2017 18:00:00 27,7 11,7 33,9 16,5 14,5 12 7 19 10 NO 1018,5 40 60 0,0
24.05.2017 17:00:00 28,3 16,6 38,0 16,3 14,5 3 2 14 8 ZZO 1019,2 50 60 0,0
24.05.2017 16:00:00 27,3 17,5 41,5 16,2 14,5 2 1 16 9 ZO 1019,8 20 60 0,0
24.05.2017 15:00:00 25,8 16,9 42,0 16,1 14,5 3 1 14 8 O 1020,4 25 60 0,0
24.05.2017 14:00:00 24,0 17,0 42,7 16,1 14,5 6 4 14 7 O 1021,1 20 60 0,0
24.05.2017 13:00:00 22,8 16,3 41,5 16,0 14,5 3 2 13 7 ZZO 1021,8 16 60 0,0
24.05.2017 12:00:00 21,1 16,3 34,7 16,0 14,5 4 2 13 7 OZO 1022,4 19 60 0,0
24.05.2017 11:00:00 17,9 15,2 - - - 8 4 13 7 OZO 1022,7 2,9 - -
24.05.2017 10:00:00 14,9 14,4 17,9 16,1 14,5 6 4 10 6 O 1023,1 0,8 5 0,0
24.05.2017 09:00:00 13,0 12,5 14,4 16,1 14,5 5 3 10 5 OZO 1023,2 0,2 0 0,0
24.05.2017 08:00:00 11,9 11,3 12,8 16,1 14,5 6 3 8 5 O 1023,3 0,1 0 0,0
24.05.2017 07:00:00 11,9 11,3 11,0 16,2 14,5 4 2 6 3 OZO 1023,2 0,1 0 0,0
24.05.2017 06:00:00 11,6 11,0 11,4 16,2 14,5 3 2 5 3 OZO 1023,0 0,2 0 0,0
24.05.2017 05:00:00 11,8 11,2 9,9 16,3 14,4 4 2 5 3 OZO 1023,1 0,2 0 0,0
24.05.2017 04:00:00 12,1 11,5 9,2 16,4 14,5 4 2 6 3 ZZO 1023,4 0,1 0 0,2
24.05.2017 03:00:00 12,3 11,7 6,7 16,4 14,4 3 2 6 3 OZO 1023,7 0,2 0 0,0
24.05.2017 02:00:00 11,8 10,9 6,7 16,4 14,4 0 0 5 3 N 1023,9 0,3 0 0,0
24.05.2017 01:00:00 12,6 11,5 7,2 16,5 14,4 3 2 4 2 O 1024,2 7 0 0,0
24.05.2017 00:00:00 13,4 12,0 7,7 16,5 14,4 3 1 5 3 ZO 1024,2 10 0 0,0
23.05.2017 23:00:00 14,4 12,9 8,7 16,5 14,4 6 3 10 5 OZO 1024,3 13 0 0,0
23.05.2017 22:00:00 15,4 13,1 10,4 16,4 14,4 8 4 9 5 OZO 1023,9 18 0 0,0
23.05.2017 21:00:00 18,5 13,6 15,7 16,4 14,4 5 3 9 5 O 1023,6 22 60 0,0
23.05.2017 20:00:00 20,1 13,5 21,7 16,4 14,4 6 3 11 6 NNW 1023,1 19 60 0,0
23.05.2017 19:00:00 20,4 13,4 27,0 16,3 14,4 5 3 11 6 N 1023,1 29 60 0,0
23.05.2017 18:00:00 20,1 12,8 25,6 16,3 14,4 5 3 14 8 WNW 1023,6 24 23 0,0
23.05.2017 17:00:00 19,9 13,8 25,8 16,3 14,4 5 3 12 6 NW 1024,0 11 6 0,0
23.05.2017 16:00:00 19,1 12,8 24,0 16,2 14,4 4 2 11 6 WNW 1024,2 29 0 0,0
23.05.2017 15:00:00 18,4 12,4 21,9 16,2 14,4 4 2 12 6 W 1024,5 27 0 0,0
23.05.2017 14:00:00 17,3 12,2 20,1 16,2 14,4 6 4 16 9 W 1024,9 24 0 0,0
23.05.2017 13:00:00 16,9 12,0 19,7 16,2 14,4 8 4 14 8 WZW 1025,0 24 0 0,0
23.05.2017 12:00:00 16,5 12,1 19,0 16,2 14,3 9 5 13 7 WZW 1025,0 20 0 0,0
23.05.2017 11:00:00 16,3 12,1 18,1 16,3 14,4 7 4 16 8 ZW 1024,9 18 0 0,0
23.05.2017 10:00:00 15,5 12,4 15,9 16,3 14,4 6 4 16 9 WZW 1024,7 20 0 0,0
23.05.2017 09:00:00 15,1 12,2 15,1 16,3 14,4 7 4 21 12 WZW 1024,4 14 0 0,0
23.05.2017 08:00:00 15,0 12,1 14,4 16,4 14,4 9 5 17 9 W 1023,8 15 0 0,0
23.05.2017 07:00:00 14,8 12,5 14,2 16,4 14,4 8 5 16 9 W 1023,2 14 0 0,0
23.05.2017 06:00:00 15,2 12,5 14,3 16,4 14,4 9 5 16 8 W 1022,7 18 0 0,0
23.05.2017 05:00:00 15,2 12,7 14,5 16,5 14,3 9 5 24 13 W 1022,3 18 0 0,0
23.05.2017 04:00:00 15,3 13,0 14,5 16,5 14,4 12 6 26 14 WNW 1022,1 18 0 0,0
23.05.2017 03:00:00 15,5 12,8 14,6 16,5 14,4 14 7 31 17 W 1021,9 16 0 0,0
23.05.2017 02:00:00 15,5 13,0 14,7 16,5 14,4 19 10 29 16 WNW 1021,7 14 0 0,0
23.05.2017 01:00:00 15,9 13,4 15,3 16,5 14,3 10 5 22 12 WNW 1021,9 12 0 0,0
23.05.2017 00:00:00 16,3 13,8 15,4 16,5 14,3 12 6 26 14 W 1021,6 12 0 0,0
22.05.2017 23:00:00 17,2 14,3 16,0 16,4 14,4 15 8 24 13 W 1020,7 14 0 0,0
22.05.2017 22:00:00 19,5 15,8 17,4 16,4 14,4 9 5 16 8 W 1019,5 11 0 0,0
22.05.2017 21:00:00 21,0 17,4 18,8 16,3 14,3 6 3 38 21 ZW 1018,0 20 19 3,4
22.05.2017 20:00:00 23,6 17,6 22,7 16,2 14,4 10 6 23 12 WZW 1016,8 17 7 0,0
22.05.2017 19:00:00 25,1 18,1 21,5 16,1 14,3 6 4 12 7 W 1016,2 18 5 0,0
22.05.2017 18:00:00 24,4 16,6 21,6 15,9 14,4 9 5 13 7 NNW 1016,2 16 1 0,0
22.05.2017 17:00:00 27,3 16,3 33,0 15,8 14,3 6 3 16 8 NNW 1015,9 31 44 0,0
22.05.2017 16:00:00 26,9 16,2 42,0 15,6 14,3 5 3 12 7 O 1016,4 30 60 0,0
22.05.2017 15:00:00 25,8 17,4 42,3 15,5 14,3 6 4 16 8 O 1016,5 22 60 0,0
22.05.2017 14:00:00 24,8 17,0 39,3 15,5 14,4 11 6 22 12 O 1016,4 19 60 0,0
22.05.2017 13:00:00 23,7 16,2 39,5 15,5 14,4 11 6 29 16 OZO 1016,4 19 60 0,0
22.05.2017 12:00:00 22,7 15,5 34,0 15,4 14,3 14 8 31 17 OZO 1016,4 16 60 0,0
22.05.2017 11:00:00 21,1 14,5 22,4 15,4 14,4 11 6 27 14 ZO 1016,2 19 44 0,0
22.05.2017 10:00:00 18,5 12,9 20,7 15,5 14,4 18 10 26 14 OZO 1015,7 24 3 0,0
22.05.2017 09:00:00 17,4 11,2 15,1 15,5 14,4 14 7 19 11 OZO 1015,8 20 17 0,0
22.05.2017 08:00:00 15,6 9,3 12,8 15,5 14,3 9 5 19 10 O 1015,5 24 0 0,0
22.05.2017 07:00:00 14,9 8,4 12,5 15,5 14,4 8 5 17 9 OZO 1014,5 30 0 0,0
22.05.2017 06:00:00 15,4 7,9 12,5 15,6 14,4 4 2 19 10 OZO 1014,3 32 0 0,0
22.05.2017 05:00:00 15,5 7,8 11,9 15,6 14,3 11 6 22 12 OZO 1013,5 35 0 0,0
22.05.2017 04:00:00 15,3 8,3 11,2 15,6 14,3 16 9 23 12 OZO 1013,1 23 0 0,0
22.05.2017 03:00:00 15,5 8,9 11,9 15,6 14,4 14 7 22 12 OZO 1013,4 60 0 0,0
22.05.2017 02:00:00 15,7 9,1 10,8 15,6 14,4 17 9 22 12 OZO 1013,9 60 0 0,0
22.05.2017 01:00:00 15,1 9,5 10,1 15,6 14,4 14 8 18 10 OZO 1014,5 41 0 0,0
22.05.2017 00:00:00 15,9 10,4 10,4 15,6 14,4 10 5 14 8 OZO 1014,9 39 0 0,0
21.05.2017 23:00:00 17,2 10,3 11,5 15,6 14,3 10 5 16 9 OZO 1014,8 42 0 0,0
21.05.2017 22:00:00 18,9 12,2 14,6 15,5 14,4 14 7 18 10 OZO 1014,4 41 0 0,0
21.05.2017 21:00:00 20,5 11,7 17,1 15,4 14,4 10 6 14 7 O 1015,0 49 0 0,0
21.05.2017 20:00:00 22,5 10,6 21,3 15,3 14,4 9 5 22 12 OZO 1015,7 34 44 0,0
21.05.2017 19:00:00 23,8 8,6 26,0 15,2 14,4 15 8 26 14 ZO 1016,1 14 60 0,0
21.05.2017 18:00:00 24,5 9,6 32,2 15,1 14,4 16 8 23 12 OZO 1016,5 14 60 0,0
21.05.2017 17:00:00 24,3 10,6 36,3 14,9 14,4 12 7 25 14 OZO 1017,2 13 60 0,0
21.05.2017 16:00:00 23,6 9,6 36,0 14,8 14,4 14 8 23 12 O 1018,1 11 60 0,0
21.05.2017 15:00:00 22,4 10,2 35,3 14,8 14,4 12 7 24 13 OZO 1019,2 11 60 0,0
21.05.2017 14:00:00 21,5 10,6 36,1 14,7 14,4 16 9 26 14 ZO 1020,0 11 60 0,0
21.05.2017 13:00:00 21,2 11,2 36,9 14,7 14,4 17 9 30 16 ZO 1020,8 11 60 0,0
21.05.2017 12:00:00 19,6 10,6 31,4 14,7 14,4 18 10 29 15 OZO 1021,4 10 60 0,0
21.05.2017 11:00:00 17,6 11,4 25,9 14,7 14,4 17 9 26 14 OZO 1022,0 8 60 0,0
21.05.2017 10:00:00 15,3 10,9 15,2 14,8 14,4 14 8 21 11 OZO 1022,9 8 60 0,0
21.05.2017 09:00:00 12,2 10,1 10,6 14,8 14,3 13 7 17 9 O 1023,2 6 60 0,0
21.05.2017 08:00:00 9,9 9,3 6,0 14,9 14,4 10 5 13 7 O 1023,3 4,5 48 0,0
21.05.2017 07:00:00 7,8 7,4 4,3 15,0 14,4 6 4 9 5 OZO 1023,3 1,1 0 0,0
21.05.2017 06:00:00 7,4 6,8 4,0 15,0 14,4 5 3 9 5 ZO 1023,5 0,3 0 0,0
21.05.2017 05:00:00 7,4 6,8 4,0 15,1 14,4 4 2 8 4 OZO 1023,8 0,1 0 0,0
21.05.2017 04:00:00 7,9 7,3 1,5 15,2 14,4 5 3 6 3 OZO 1024,3 0,1 0 0,0
21.05.2017 03:00:00 6,9 6,0 1,6 15,3 14,4 4 2 6 3 OZO 1024,7 8 0 0,0
21.05.2017 02:00:00 7,4 6,3 2,0 15,3 14,4 5 3 6 3 O 1025,2 18 0 0,0
21.05.2017 01:00:00 8,6 7,5 2,6 15,3 14,4 0 0 3 2 N 1025,8 19 0 0,0
21.05.2017 00:00:00 9,5 7,9 3,4 15,3 14,4 0 0 2 1 N 1026,0 22 0 0,0
20.05.2017 23:00:00 11,1 8,8 4,4 15,3 14,4 0 0 4 2 N 1025,9 22 0 0,0
20.05.2017 22:00:00 14,0 8,6 6,9 15,3 14,4 3 1 7 4 ZW 1025,6 10 0 0,0
20.05.2017 21:00:00 16,8 8,2 13,0 15,3 14,4 5 3 16 9 NNW 1025,2 35 60 0,0
20.05.2017 20:00:00 18,1 7,2 18,0 15,2 14,4 13 7 22 12 WNW 1025,0 17 60 0,0
20.05.2017 19:00:00 19,0 7,1 19,3 15,2 14,4 18 10 24 13 WNW 1024,9 21 27 0,0
20.05.2017 18:00:00 18,5 8,7 21,0 15,2 14,4 15 8 28 15 WNW 1024,8 13 28 0,0
20.05.2017 17:00:00 18,3 8,8 21,6 15,1 14,4 18 10 32 18 NW 1024,7 11 36 0,0
20.05.2017 16:00:00 19,1 8,7 23,6 15,1 14,4 18 10 39 21 W 1024,8 2,2 39 0,0

tt = temperatuur
td = dauwpunt
tt 5cm = temperatuur 5cm
tt -20cm = temperatuur -20cm
tt -100cm = temperatuur -100cm
ff = windsnelheid
fx = windstoten
dd = windrichting
ppp = luchtdruk
vv = zicht
sd = Zonneschijnduur
rr = neerslag

Weerstations in de omgeving